Temperature
17 17 17 17 17 17 17 18 18 18 18 18 18 17 17 17 16 16 16 15 15 15 15 15 15 15 15 15 15 15 15 14 14 14 14 14 14 14
16 16 17 17 17 17 17 17 17 17 17 18 18 17 17 17 16 16 16 15 15 15 15 15 15 15 15 15 15 15 15 14 14 14 14 14 14 14
16 16 16 17 17 16 17 17 17 17 17 17 17 17 17 17 16 16 16 15 15 15 15 15 15 15 15 15 15 15 14 14 14 14 14 14 14 14
16 16 16 16 16 16 16 16 16 16 16 16 17 17 16 16 16 16 16 15 15 15 15 15 15 15 15 15 15 15 15 14 14 14 14 14 14 14
16 16 16 16 16 16 16 16 16 16 16 16 16 16 16 16 16 15 15 15 15 15 15 15 15 15 15 15 15 15 15 14 14 14 14 14 14 14
16 16 16 16 16 16 16 16 16 16 16 15 15 16 16 15 15 15 15 15 15 15 15 15 15 15 15 15 15 15 15 14 14 14 14 14 14 14
16 16 16 16 16 16 15 15 15 15 15 15 15 15 15 15 15 15 15 15 15 15 15 15 15 15 15 15 15 15 14 14 14 14 14 14 14 14
16 16 16 16 16 15 15 15 15 15 15 15 15 15 15 15 15 14 14 14 14 14 14 14 14 14 14 14 14 14 14 14 14 14 14 14 14 13
15 15 15 15 15 15 15 15 15 15 14 14 14 14 14 14 14 14 14 14 14 14 14 14 14 14 14 14 14 14 14 14 14 14 13 13 13 13
15 15 15 15 15 15 14 14 14 14 14 14 14 14 14 14 13 13 13 13 13 13 13 13 13 13 13 13 13 13 13 13 13 13 13 13 13 13
15 15 14 14 14 14 14 14 14 14 14 13 13 13 13 13 13 13 13 12 12 12 13 12 13 12 13 13 13 13 13 13 13 13 13 13 12 12
14 14 14 14 14 14 13 13 13 13 13 13 13 13 13 13 12 12 12 12 11 11 12 12 12 11 11 12 12 12 12 12 12 12 12 12 12 12
14 13 13 13 13 13 13 13 13 12 12 12 12 12 12 12 12 12 11 11 11 11 11 11 11 11 10 10 11 11 11 11 11 12 12 12 12 12
13 13 13 13 13 13 12 12 12 12 12 11 11 11 11 11 11 11 11 11 11 11 11 10 10 10 10 10 10 10 10 11 11 11 11 11 11 11
12 12 12 12 12 12 12 12 11 11 11 11 11 11 11 11 10 10 10 10 10 10 10 10 10 10 9 9 9 9 10 10 10 10 10 10 10 10
12 12 12 12 12 11 11 11 11 11 10 10 10 10 10 10 10 10 10 10 10 10 10 10 10 9 9 9 9 9 9 9 9 10 10 10 10 10
11 11 11 11 11 11 11 11 11 10 10 10 10 10 9 9 9 9 9 9 9 9 9 9 9 9 9 9 9 9 9 9 9 9 9 9 9 9
11 11 11 11 11 10 10 10 10 10 10 9 9 9 9 9 9 9 9 9 9 8 8 8 8 8 8 8 9 8 8 8 8 9 8 8 9 9
10 10 10 10 10 10 10 10 10 10 9 9 9 9 9 8 8 8 8 8 8 8 8 8 8 7 7 7 8 8 8 8 8 8 8 8 8 8
10 10 10 10 9 9 9 9 9 9 9 9 8 8 8 8 8 8 8 7 7 7 7 7 7 7 7 7 7 7 8 7 7 7 7 8 8 8
9 9 9 9 9 9 9 8 8 8 8 8 7 7 7 7 7 7 7 7 7 7 6 6 7 6 6 6 6 7 7 7 7 7 7 7 7 7
9 9 8 8 8 8 8 8 7 7 7 7 7 7 7 7 6 6 6 6 6 6 6 6 6 6 6 6 6 6 7 7 7 7 7 7 7 7
8 8 8 8 7 7 7 7 7 6 6 6 6 6 6 6 6 6 5 5 5 5 5 5 6 6 6 6 6 6 6 6 7 7 7 7 7 7
Wind_Speed
5 5 3 3 3 2 1 1 1 2 3 4 3 5 7 8 14 12 10 16 17 16 15 14 14 13 13 13 13 13 13 13 13 14 14 14 13 13
4 4 4 4 3 3 2 2 1 2 2 1 2 3 4 5 14 12 10 14 19 19 19 18 17 17 16 16 16 16 16 16 16 15 15 15 15 15
6 5 5 5 3 2 2 2 2 2 3 3 2 2 3 2 5 7 9 10 14 20 22 22 21 21 20 19 19 18 18 18 18 17 17 17 17 16
7 6 6 6 5 4 3 3 2 2 2 4 3 2 2 4 5 5 7 10 11 16 24 25 25 24 22 22 21 21 21 20 20 19 19 19 18 18
7 7 7 6 6 5 5 4 3 3 3 3 4 3 3 4 4 6 7 6 11 13 16 23 24 24 24 25 24 24 23 23 22 22 21 21 20 20
7 7 7 7 7 6 6 6 5 4 4 4 4 4 4 4 3 4 5 5 7 10 9 13 19 24 26 27 26 26 26 25 25 24 23 23 22 22
6 5 6 6 6 6 6 5 5 5 5 5 5 5 5 4 4 4 5 5 6 6 5 5 7 9 14 22 25 26 27 26 26 25 25 24 24 23
6 5 6 6 6 8 8 6 5 6 6 5 5 6 6 5 4 4 4 5 5 3 3 5 5 5 6 12 17 22 25 26 26 26 26 25 25 24
5 5 7 7 7 6 7 9 9 10 9 6 7 7 6 5 4 5 4 5 5 4 4 7 6 7 7 13 15 14 18 22 24 25 25 25 25 25
4 4 5 4 4 4 5 6 7 8 9 9 8 8 7 4 3 4 5 5 6 6 5 7 7 7 9 8 13 15 17 19 22 23 24 24 25 25
3 3 3 3 4 4 4 6 6 5 6 8 8 7 8 8 5 3 5 5 7 6 5 5 6 6 7 7 12 16 17 19 20 22 23 24 25 23
2 2 2 2 3 3 4 6 7 6 5 5 4 6 7 8 10 7 6 7 7 6 4 3 5 5 6 6 6 7 10 14 18 20 22 23 23 15
2 1 1 1 2 3 4 5 6 5 4 5 5 5 5 6 6 7 7 7 8 7 5 4 5 6 7 7 7 6 6 6 8 12 17 21 22 16
2 2 2 2 3 4 4 5 5 4 4 5 5 5 5 5 5 6 7 8 9 9 9 8 7 8 9 11 9 6 6 6 6 7 8 14 17 21
2 3 4 5 5 4 5 6 4 3 4 4 5 5 5 5 5 5 6 7 9 12 14 12 9 9 9 10 10 8 8 7 7 8 8 7 7 7
2 3 5 7 6 5 4 4 4 4 4 5 5 5 5 5 5 4 5 5 6 7 9 11 9 9 9 10 9 10 9 8 8 8 8 8 7 6
3 3 4 3 3 3 3 3 3 4 4 5 5 6 6 6 5 5 5 5 6 7 7 6 6 7 9 9 10 10 10 9 8 8 8 9 8 8
3 4 4 3 3 3 3 4 4 4 4 5 5 6 6 5 5 5 4 5 7 7 7 6 6 7 7 8 10 11 10 9 8 8 9 10 11 9
2 4 4 4 4 4 4 4 4 4 4 4 5 5 5 5 6 6 6 6 7 7 7 7 6 7 10 12 9 8 9 10 9 9 9 10 11 10
3 4 4 4 4 4 5 5 5 5 5 5 6 6 6 6 6 6 6 7 7 8 8 7 6 7 8 11 11 10 12 11 9 10 11 10 10 13
4 4 4 5 5 5 5 5 6 6 6 6 6 6 6 6 6 6 6 9 8 8 9 8 8 9 8 8 9 10 9 11 12 11 11 11 12 11
5 6 5 6 5 5 5 5 6 6 6 6 6 6 6 6 7 8 7 7 7 8 9 8 8 8 7 9 12 12 12 11 12 16 18 16 11 10
6 7 6 6 6 6 6 7 8 7 6 6 6 7 7 7 7 7 7 8 8 9 9 9 9 8 9 9 11 11 14 14 11 11 11 14 18 21
Wind_Direction
218 216 239 267 272 293 292 271 249 264 246 210 181 182 175 166 168 188 193 201 209 216 223 229 234 237 241 244 248 252 256 259 262 264 265 265 265 264
218 212 212 248 233 228 248 257 256 267 280 273 212 180 164 186 179 195 210 210 214 221 226 230 234 238 241 244 248 252 255 258 259 261 262 263 263 264
217 210 208 250 282 275 238 235 242 247 265 282 260 172 154 166 166 220 236 223 222 227 229 231 233 236 239 242 246 250 254 256 257 258 259 260 261 261
214 216 209 221 224 268 290 270 245 223 243 280 294 266 198 193 197 222 247 249 242 237 229 230 233 235 239 243 246 249 251 253 255 257 257 258 259 260
210 213 216 223 219 222 235 263 270 256 216 244 268 272 247 222 210 227 245 258 268 267 237 230 233 235 238 242 245 247 249 251 253 254 256 257 258 259
215 213 215 219 218 222 229 233 253 272 265 249 257 263 256 241 217 226 249 245 253 264 260 241 234 236 239 242 245 247 248 249 251 252 254 255 256 257
227 223 226 221 216 215 233 227 235 241 253 252 250 254 256 254 245 240 252 260 255 248 258 258 238 234 241 246 248 249 248 248 248 249 251 253 255 256
228 230 231 220 220 218 228 237 239 245 252 259 262 260 264 266 268 263 261 271 274 267 280 279 273 261 250 251 249 244 244 245 246 247 249 251 253 254
226 229 243 242 219 221 228 237 247 251 243 251 265 269 276 279 276 274 273 274 270 282 295 281 275 275 272 274 271 262 251 248 247 247 248 250 251 252
240 232 233 259 268 245 243 242 243 244 241 238 245 257 268 279 279 272 271 274 267 263 255 267 272 271 277 282 285 276 266 258 252 249 248 249 251 253
260 269 255 246 270 268 260 264 263 256 249 241 235 242 253 263 263 272 270 270 275 272 259 260 273 280 281 280 279 276 270 264 260 257 255 253 253 255
242 257 281 278 286 279 264 263 264 266 273 273 253 257 256 256 246 236 245 257 268 274 264 271 283 289 286 273 273 283 280 275 268 263 261 258 258 256
290 298 347 348 268 267 264 262 261 269 279 276 271 262 255 249 243 235 229 235 249 257 268 280 287 285 277 283 285 279 271 270 271 269 266 262 259 249
326 352 23 353 302 282 265 260 274 286 276 274 274 273 268 263 258 252 247 245 245 252 263 265 268 270 277 281 282 277 274 272 273 271 264 267 261 254
335 340 310 288 279 273 250 253 260 259 265 271 273 275 275 275 274 267 262 254 253 256 261 256 254 260 262 271 278 279 283 280 273 272 270 266 262 257
306 297 275 270 261 260 264 247 239 248 255 264 272 272 273 276 273 269 271 271 272 271 264 263 259 257 265 268 272 277 276 277 277 274 273 272 269 261
320 280 272 262 249 246 253 255 249 247 255 263 270 276 276 272 271 268 266 270 274 283 287 284 272 266 262 267 272 273 275 276 275 276 281 281 272 265
320 286 284 280 283 287 282 275 263 260 262 264 267 269 275 281 285 283 281 282 282 281 283 288 293 294 288 275 258 273 277 278 281 283 282 283 282 275
283 288 303 314 317 317 315 313 309 301 288 285 288 289 290 292 290 288 286 284 285 290 293 295 294 292 293 292 285 269 280 284 284 282 278 276 280 279
283 298 311 321 326 328 327 323 320 324 322 316 310 307 302 297 295 296 298 300 300 300 298 295 291 288 286 290 292 289 273 271 277 279 281 279 278 278
329 327 327 329 332 332 327 323 322 321 320 311 303 299 300 301 300 299 298 296 292 292 294 294 292 292 290 291 288 286 284 273 269 273 280 283 284 284
334 337 342 340 336 333 330 325 322 321 320 316 314 316 317 316 310 304 301 297 292 291 292 293 295 295 291 286 287 291 295 294 287 277 265 259 265 270
349 344 342 340 343 342 338 334 332 327 328 327 326 322 317 313 307 304 304 303 303 300 299 299 298 294 290 288 290 292 295 298 297 294 287 273 264 260
Height
1549 1550 1552 1553 1554 1555 1556 1558 1559 1559 1559 1559 1559 1559 1560 1560 1560 1561 1560 1560 1560 1560 1560 1559 1559 1559 1558 1558 1557 1557 1557 1557 1557 1557 1557 1557 1557 1557
1546 1548 1549 1551 1552 1553 1554 1555 1556 1557 1556 1557 1557 1557 1557 1558 1557 1557 1557 1557 1556 1556 1556 1556 1555 1555 1554 1554 1553 1553 1553 1552 1552 1552 1552 1552 1552 1552
1544 1545 1546 1547 1549 1550 1551 1552 1553 1554 1553 1554 1555 1554 1555 1555 1554 1554 1554 1553 1553 1553 1552 1552 1552 1551 1550 1550 1549 1549 1548 1548 1547 1547 1547 1547 1547 1547
1540 1542 1543 1545 1546 1547 1548 1549 1550 1550 1551 1550 1551 1551 1551 1551 1551 1550 1550 1550 1549 1549 1548 1548 1548 1547 1546 1546 1545 1544 1543 1543 1543 1542 1542 1542 1542 1542
1537 1539 1540 1541 1542 1543 1544 1545 1546 1547 1547 1547 1547 1547 1547 1547 1546 1546 1546 1545 1545 1545 1544 1544 1543 1542 1542 1541 1540 1539 1538 1538 1537 1537 1536 1536 1536 1536
1534 1535 1537 1538 1538 1539 1540 1541 1542 1542 1543 1543 1542 1543 1543 1543 1542 1541 1541 1540 1540 1540 1540 1539 1538 1537 1536 1536 1535 1534 1533 1532 1532 1531 1531 1530 1530 1529
1531 1532 1533 1534 1535 1535 1536 1537 1537 1537 1538 1538 1538 1538 1538 1538 1537 1537 1536 1535 1535 1535 1534 1534 1533 1531 1531 1530 1529 1528 1527 1526 1526 1525 1524 1524 1523 1522
1527 1528 1529 1530 1530 1531 1532 1532 1533 1533 1533 1533 1532 1532 1532 1533 1532 1532 1531 1530 1529 1530 1529 1528 1527 1526 1525 1524 1523 1522 1521 1520 1519 1519 1518 1517 1516 1515
1523 1524 1525 1526 1526 1526 1527 1527 1527 1528 1528 1528 1527 1527 1527 1527 1527 1526 1525 1524 1523 1523 1523 1520 1520 1519 1519 1518 1517 1516 1515 1514 1513 1512 1510 1509 1508 1507
1519 1520 1520 1521 1521 1521 1521 1521 1521 1521 1521 1521 1521 1521 1521 1520 1520 1520 1519 1517 1516 1516 1516 1514 1513 1512 1512 1511 1510 1509 1508 1506 1505 1504 1503 1502 1501 1499
1515 1516 1516 1516 1516 1517 1516 1516 1515 1515 1515 1515 1514 1514 1513 1513 1513 1513 1512 1511 1509 1509 1510 1508 1506 1505 1503 1502 1502 1501 1500 1499 1497 1496 1495 1494 1492 1491
1511 1511 1511 1511 1511 1511 1511 1510 1509 1509 1509 1508 1507 1507 1506 1506 1506 1506 1505 1504 1503 1502 1502 1502 1500 1498 1495 1494 1494 1493 1491 1490 1489 1488 1487 1486 1485 1483
1507 1507 1507 1507 1506 1506 1505 1504 1503 1503 1502 1501 1500 1500 1500 1499 1499 1499 1498 1498 1497 1495 1496 1496 1493 1492 1490 1486 1486 1485 1484 1482 1481 1480 1478 1477 1476 1475
1503 1503 1503 1502 1502 1501 1500 1499 1498 1497 1496 1495 1495 1494 1494 1493 1493 1492 1492 1491 1490 1489 1489 1489 1487 1485 1483 1480 1477 1476 1476 1474 1473 1471 1470 1468 1467 1466
1500 1499 1499 1498 1497 1496 1495 1495 1494 1492 1491 1491 1490 1489 1488 1488 1487 1486 1485 1484 1483 1483 1482 1482 1480 1478 1476 1473 1470 1469 1467 1466 1465 1463 1461 1460 1458 1457
1497 1496 1496 1495 1494 1493 1492 1491 1490 1489 1488 1487 1486 1485 1484 1483 1482 1481 1480 1478 1477 1476 1476 1475 1473 1471 1468 1466 1464 1461 1460 1458 1457 1455 1453 1451 1450 1449
1494 1494 1493 1493 1492 1491 1490 1489 1488 1486 1485 1483 1482 1481 1480 1478 1477 1476 1474 1473 1471 1469 1468 1467 1466 1464 1461 1460 1457 1454 1452 1450 1449 1447 1445 1442 1441 1440
1493 1492 1491 1491 1490 1489 1488 1487 1485 1484 1482 1480 1479 1477 1476 1474 1473 1471 1470 1468 1466 1464 1462 1461 1459 1456 1453 1451 1451 1447 1445 1443 1441 1439 1437 1434 1430 1430
1492 1491 1490 1490 1489 1487 1486 1484 1483 1481 1479 1477 1475 1473 1472 1470 1468 1467 1465 1463 1461 1459 1457 1455 1453 1451 1447 1443 1442 1442 1439 1435 1433 1431 1429 1426 1422 1420
1491 1490 1489 1488 1486 1485 1483 1481 1479 1477 1475 1473 1471 1469 1467 1465 1463 1461 1460 1458 1456 1453 1451 1449 1447 1445 1443 1439 1434 1432 1432 1429 1426 1422 1420 1417 1414 1411
1490 1488 1487 1486 1484 1482 1480 1478 1476 1473 1471 1469 1467 1465 1463 1461 1458 1456 1454 1452 1450 1448 1445 1443 1441 1440 1436 1433 1429 1424 1423 1422 1420 1416 1412 1409 1405 1402
1488 1486 1485 1483 1481 1479 1477 1474 1472 1469 1467 1465 1462 1460 1458 1455 1453 1451 1449 1447 1444 1442 1439 1437 1435 1432 1430 1427 1422 1418 1415 1413 1411 1408 1406 1403 1399 1394
1486 1484 1482 1480 1478 1476 1473 1471 1468 1465 1463 1460 1457 1455 1452 1450 1448 1446 1443 1441 1439 1436 1433 1431 1428 1426 1423 1421 1417 1413 1409 1406 1402 1399 1397 1395 1393 1389